ECHOSTAR 1

导读

ECHOSTAR 1是美国EchoStar公司运营的通信卫星,于1995年12月28日发射入轨,定位于地球静止轨道。该卫星是EchoStar卫星星座的早期成员,主要承担北美区域直接到户的卫星电视广播传输服务,为民众提供高质量电视信号覆盖。作为企业通信布局的开端,它验证了EchoStar静止轨道通信技术,推动后续卫星通信服务拓展,奠定了该星座在卫星电视、通信服务领域发展的基础。

基本信息
目录编号:
23754
目录名称:
ECHOSTAR 1
国际标识:
1995-073A
轨道中心:
EARTH
卫星名称:
ECHOSTAR 1
卫星全名:
--
卫星状态:
在轨 (已飞行11215 天)
发射日期:
1995-12-28 UTC
国别 :
美国 (US)
星等 :
--
该卫星已列入 空间交会检测服务 Space Conjunction Data Service (SCDS) ,当前飞行风险评估等级: 无高风险
轨道信息
数据来源 国际轨道数据 AOE轨道数据
星历时间 2026-09-11T04:48:52+0800
18小时前
查看轨道信息
2026-09-10T06:00:00+0800
1天前
查看轨道信息
半长轴 42544.498km 42544.24km
偏心率 0.0001893 0.000184
轨道倾角 8.824° 8.822°
近地点辐角 147.670° 145.432°
升交点赤经 61.939° 61.951°
平近点角 209.337° 232.995°
近地点 36158.307km 36158.274km
远地点 36174.415km 36173.932km
周期 1455.542分钟 1455.529分钟
每日圈数 0.989322 0.989331
详细信息
使用方式:
暂无
2D轨道图
3D轨道图
轨道高度分析图
轨道倾角分析图
轨道综合分析图
查看轨道综合分析图
与全量物体交会距离演化趋势
与全量物体交会风险概率演化趋势